TimeCST,TemperatureF,Dew PointF,Humidity,Sea Level PressureIn,VisibilityMPH,Wind Direction,Wind SpeedMPH,Gust SpeedMPH,PrecipitationIn,Events,Conditions,WindDirDegrees,DateUTC
12:15 AM,32.0,29.1,89,30.25,10.0,SSE,11.5,-,N/A,,Clear,150,2013-11-20 06:15:00
12:35 AM,31.8,28.8,88,30.25,10.0,SSE,8.1,-,N/A,,Clear,150,2013-11-20 06:35:00
12:55 AM,31.5,28.4,88,30.25,10.0,SSE,8.1,-,N/A,,Clear,150,2013-11-20 06:55:00
1:15 AM,31.3,28.4,89,30.24,10.0,SSE,9.2,-,N/A,,Clear,150,2013-11-20 07:15:00
1:35 AM,31.1,28.4,90,30.25,10.0,SSE,6.9,-,N/A,,Clear,150,2013-11-20 07:35:00
1:55 AM,31.1,28.4,90,30.25,10.0,SSE,9.2,-,N/A,,Clear,150,2013-11-20 07:55:00
2:15 AM,31.5,28.4,88,30.26,10.0,SSE,9.2,-,N/A,,Clear,150,2013-11-20 08:15:00
2:35 AM,31.1,28.4,90,30.25,10.0,SSE,9.2,-,N/A,,Clear,160,2013-11-20 08:35:00
2:55 AM,30.9,27.9,88,30.26,10.0,SSE,5.8,-,N/A,,Clear,160,2013-11-20 08:55:00
3:15 AM,31.3,28.4,89,30.24,10.0,SSE,12.7,-,N/A,,Clear,150,2013-11-20 09:15:00
3:35 AM,31.6,28.4,88,30.24,10.0,SSE,9.2,-,N/A,,Clear,160,2013-11-20 09:35:00
3:55 AM,31.5,28.2,88,30.24,10.0,SSE,10.4,-,N/A,,Clear,160,2013-11-20 09:55:00
4:15 AM,31.1,28.2,89,30.24,10.0,SSE,12.7,-,N/A,,Clear,150,2013-11-20 10:15:00
4:35 AM,31.1,28.0,88,30.24,10.0,SSE,12.7,-,N/A,,Clear,150,2013-11-20 10:35:00
4:55 AM,31.1,27.9,88,30.24,10.0,SE,10.4,-,N/A,,Clear,140,2013-11-20 10:55:00
5:15 AM,31.1,27.5,87,30.22,10.0,SE,15.0,-,N/A,,Clear,130,2013-11-20 11:15:00
5:35 AM,30.9,27.7,88,30.21,10.0,SE,13.8,-,N/A,,Clear,140,2013-11-20 11:35:00
5:55 AM,31.6,28.0,87,30.21,10.0,SE,10.4,-,N/A,,Mostly Cloudy,140,2013-11-20 11:55:00
6:15 AM,31.8,27.9,85,30.21,10.0,SE,15.0,-,N/A,,Mostly Cloudy,140,2013-11-20 12:15:00
6:35 AM,31.6,27.5,85,30.21,10.0,SE,16.1,20.7,N/A,,Scattered Clouds,140,2013-11-20 12:35:00
6:55 AM,31.3,27.1,85,30.21,10.0,SE,17.3,-,N/A,,Scattered Clouds,140,2013-11-20 12:55:00
7:15 AM,31.1,27.1,85,30.22,7.0,SSE,15.0,-,N/A,,Clear,150,2013-11-20 13:15:00
7:35 AM,31.1,27.1,85,30.22,7.0,SSE,15.0,-,N/A,,Clear,150,2013-11-20 13:35:00
7:55 AM,31.5,27.5,85,30.22,7.0,SE,13.8,-,N/A,,Clear,140,2013-11-20 13:55:00
8:15 AM,32.0,27.9,85,30.23,7.0,SSE,13.8,19.6,N/A,,Clear,150,2013-11-20 14:15:00
8:35 AM,32.0,28.2,86,30.23,10.0,SE,15.0,-,N/A,,Clear,140,2013-11-20 14:35:00
8:55 AM,32.9,28.4,84,30.23,10.0,SSE,16.1,21.9,N/A,,Clear,150,2013-11-20 14:55:00
9:15 AM,33.4,28.8,83,30.23,10.0,SSE,15.0,-,N/A,,Clear,150,2013-11-20 15:15:00
9:35 AM,34.0,28.8,81,30.22,10.0,SSE,16.1,-,N/A,,Clear,150,2013-11-20 15:35:00
9:55 AM,34.0,28.4,80,30.23,10.0,SSE,15.0,-,N/A,,Clear,160,2013-11-20 15:55:00
10:15 AM,35.8,29.5,78,30.22,10.0,SSE,16.1,-,N/A,,Clear,150,2013-11-20 16:15:00
10:35 AM,37.4,30.0,75,30.22,10.0,SSE,16.1,21.9,N/A,,Clear,160,2013-11-20 16:35:00
10:55 AM,37.4,30.0,75,30.21,10.0,SSE,15.0,-,N/A,,Clear,150,2013-11-20 16:55:00
11:15 AM,37.9,30.0,73,30.20,10.0,SSE,13.8,-,N/A,,Clear,150,2013-11-20 17:15:00
11:35 AM,39.2,30.9,72,30.19,10.0,SSE,13.8,-,N/A,,Scattered Clouds,150,2013-11-20 17:35:00
11:55 AM,40.1,30.7,69,30.17,10.0,SSE,17.3,-,N/A,,Scattered Clouds,160,2013-11-20 17:55:00
12:15 PM,39.4,30.9,72,30.16,10.0,SSE,15.0,-,N/A,,Scattered Clouds,160,2013-11-20 18:15:00
12:35 PM,39.7,30.9,71,30.14,10.0,SSE,12.7,-,N/A,,Scattered Clouds,150,2013-11-20 18:35:00
12:55 PM,39.6,31.1,72,30.13,10.0,SSE,17.3,-,N/A,,Scattered Clouds,150,2013-11-20 18:55:00
1:15 PM,39.2,31.5,74,30.11,10.0,SE,16.1,-,N/A,,Clear,140,2013-11-20 19:15:00
1:35 PM,39.0,31.6,75,30.11,10.0,SE,13.8,-,N/A,,Scattered Clouds,140,2013-11-20 19:35:00
1:55 PM,39.2,31.8,75,30.10,10.0,SE,13.8,-,N/A,,Clear,140,2013-11-20 19:55:00
2:15 PM,39.4,32.0,75,30.10,10.0,SSE,12.7,-,N/A,,Clear,150,2013-11-20 20:15:00
2:35 PM,39.4,32.0,75,30.09,10.0,SE,15.0,-,N/A,,Clear,140,2013-11-20 20:35:00
2:55 PM,39.2,32.0,75,30.09,10.0,SE,12.7,-,N/A,,Clear,140,2013-11-20 20:55:00
3:15 PM,38.8,32.0,76,30.10,10.0,SE,10.4,-,N/A,,Scattered Clouds,140,2013-11-20 21:15:00
3:35 PM,38.7,32.2,78,30.10,10.0,SSE,9.2,-,N/A,,Mostly Cloudy,150,2013-11-20 21:35:00
3:55 PM,38.7,32.2,78,30.09,10.0,SE,12.7,-,N/A,,Mostly Cloudy,130,2013-11-20 21:55:00
4:15 PM,38.7,32.2,78,30.07,10.0,SE,11.5,-,N/A,,Overcast,130,2013-11-20 22:15:00
4:35 PM,38.7,32.2,78,30.08,10.0,SE,11.5,-,N/A,,Overcast,140,2013-11-20 22:35:00
4:55 PM,38.5,32.9,80,30.09,10.0,SE,9.2,-,N/A,,Drizzle,140,2013-11-20 22:55:00
5:15 PM,38.3,33.1,81,30.09,10.0,SE,9.2,-,N/A,Rain,Rain,140,2013-11-20 23:15:00
5:35 PM,38.3,33.4,83,30.09,7.0,SE,9.2,-,N/A,Rain,Light Rain,130,2013-11-20 23:35:00
5:55 PM,37.9,33.8,85,30.10,7.0,SE,8.1,-,0.02,Rain,Rain,140,2013-11-20 23:55:00
6:15 PM,37.9,34.3,87,30.12,7.0,South,6.9,-,N/A,Rain,Rain,170,2013-11-21 00:15:00
6:35 PM,37.6,34.2,87,30.12,7.0,SSE,8.1,-,0.02,Rain-Thunderstorm,Rain,150,2013-11-21 00:35:00
6:55 PM,36.7,33.8,89,30.10,7.0,SE,11.5,-,0.06,Rain,Light Rain,140,2013-11-21 00:55:00
7:15 PM,36.9,34.3,91,30.09,7.0,SE,15.0,-,0.06,Rain,Light Rain,140,2013-11-21 01:15:00
7:35 PM,37.2,34.7,91,30.11,7.0,SSE,11.5,-,0.06,Rain,Light Rain,150,2013-11-21 01:35:00
7:55 PM,37.4,35.1,91,30.11,7.0,SSE,12.7,-,0.06,Rain,Rain,150,2013-11-21 01:55:00
8:15 PM,37.4,35.1,91,30.10,5.0,SSE,13.8,-,N/A,Rain,Light Rain,150,2013-11-21 02:15:00
8:35 PM,37.4,35.6,93,30.11,7.0,SSE,12.7,-,N/A,,Overcast,150,2013-11-21 02:35:00
8:55 PM,37.6,35.6,93,30.11,7.0,SSE,11.5,-,N/A,,Overcast,150,2013-11-21 02:55:00
9:15 PM,37.6,35.6,93,30.11,5.0,SSE,10.4,-,N/A,Rain,Light Rain,160,2013-11-21 03:15:00
9:35 PM,37.8,35.8,93,30.11,7.0,SSE,10.4,-,N/A,,Overcast,160,2013-11-21 03:35:00
9:55 PM,37.8,35.8,93,30.10,7.0,SSE,11.5,-,N/A,,Overcast,160,2013-11-21 03:55:00
10:15 PM,38.1,36.0,92,30.10,7.0,SSE,10.4,-,N/A,,Overcast,150,2013-11-21 04:15:00
10:35 PM,38.3,36.0,91,30.10,7.0,SSE,8.1,-,N/A,,Overcast,150,2013-11-21 04:35:00
10:55 PM,38.3,36.0,91,30.11,7.0,South,6.9,-,N/A,,Overcast,170,2013-11-21 04:55:00
11:15 PM,37.9,35.8,92,30.10,5.0,SSE,5.8,-,N/A,,Overcast,160,2013-11-21 05:15:00
11:35 PM,37.9,36.0,93,30.10,5.0,SSE,6.9,-,N/A,,Overcast,150,2013-11-21 05:35:00
11:55 PM,38.3,36.5,93,30.10,7.0,SSE,8.1,-,N/A,,Overcast,160,2013-11-21 05:55:00